Kuwait International

Airport
ICAO code: 
OKBK
Summary
ICAO Region: 
APAC
Territory: 
Location: 
Kuwait,
Coordinates: 
Aerial View: 
29° 13' 45.797" N, 47° 58' 47.737" E
Airport LOS: 
Parallel Runway Operation
Airport WX: 
Fog
Metar
Observation
OKBK 170400Z 00000KT CAVOK 14/10 Q1015 NOSIG
Station
Kuwait Internationalairport
Date/Time
2022-01-17 04:00:00
Wind direction
Wind speed
00 kts
Lowest cloud amount
clouds and visibility OK
Temperature
14°C
Dew point
10°C
Humidity
76%
QNH
1015 hPa
Weather condition
n/a

Description

International airport serving...

Climatology

Hot Desert Climate (Köppen climate classification BWh) - Hot desert climates are typically found in the subtropics where there is unbroken sunshine for the whole year due to the stable descending air and high pressure, little or no precipitation. Maximum temperatures of 40°C to 45°C are not uncommon, particularly during the warmer months of the year.

Runways

Designator Length Width Surface Rops
15R/33L 3400 45 CON Yes/Yes
15L/33R 3500 45 ASP Yes/Yes
Airport map: 
Aerial View: 

SKYbrary Partners:

Safety knowledge contributed by: